User: anonymous   Login
Location: Arroyo Grande
(40.2671°N, 4.2512°W)
Time: 23:55:46
(UTC+00:00)
Language:

Cosmos 1954 Rocket - Orbit

View from above orbital plane
View from above orbital plane
View from above satellite
View from above satellite

Ground track
Ground track

The orbit data is extracted from the following two-line orbital elements,

1 19257U 88053B   23151.52788347  .00000289  00000-0  10434-3 0  9998
2 19257  74.0465 178.3164 0021590 251.7204 217.1571 14.37840540830922
Epoch (UTC): 31 May 2023 12:40:09
Eccentricity: 0.0021590
inclination: 74.0465°
perigee height: 750 km
apogee height: 781 km
right ascension of ascending node: 178.3164°
argument of perigee: 251.7204°
revolutions per day: 14.37840540
mean anomaly at epoch: 217.1571°
orbit number at epoch: 83092

The dashed part of the orbit path shows where the satellite is in the earth's shadow,  

DLR